CFG3655 LIMJ-EDDL

Flight info

Callsign CFG3655
Flight time 1h 21m
Altitude 18000
Route LAGEN Q712 KEMMI/N0449F360 DCT SRN DCT PEPAG DCT ABESI DCT LOKTA/N0442F350 DCT TEDGO DCT HAREM DCT LOHRE/N0445F360 Z850 ARPEG/N0405F240 Z850 ADEMI T854 DOMUX DOMUX1A
Aircraft A320/M-SDE1FGHIJ1LORVWYZ/S

Departure

Time 2026-05-04 19:01
Airport Genoa Cristoforo Colombo Airport (LIMJ)

Arrival

Time 2026-05-04 20:22
Airport Düsseldorf Airport (EDDL)
Time Latitude Longitude Altitude Speed Heading
2026-05-04 18:21 44.41348 8.85290 22 ft 0 kts 15°
2026-05-04 18:54 44.41338 8.85286 20 ft 2 kts 15°
2026-05-04 18:54 44.41322 8.85280 22 ft 2 kts 15°
2026-05-04 18:54 44.41305 8.85274 22 ft 2 kts 15°
2026-05-04 18:55 44.41291 8.85261 24 ft 2 kts 83°
2026-05-04 18:55 44.41300 8.85217 20 ft 2 kts 100°
2026-05-04 18:55 44.41302 8.85198 21 ft 0 kts 102°
2026-05-04 18:57 44.41297 8.85228 22 ft 7 kts 106°
2026-05-04 18:58 44.41248 8.85279 21 ft 10 kts 171°
2026-05-04 18:58 44.41174 8.85261 20 ft 11 kts 195°
2026-05-04 18:58 44.41097 8.85230 19 ft 12 kts 196°
2026-05-04 18:58 44.41030 8.85176 17 ft 9 kts 182°
2026-05-04 18:59 44.40987 8.85249 17 ft 13 kts 106°
2026-05-04 18:59 44.40959 8.85390 19 ft 17 kts 105°
2026-05-04 18:59 44.40920 8.85588 22 ft 25 kts 105°
2026-05-04 18:59 44.40873 8.85834 22 ft 25 kts 105°
2026-05-04 19:00 44.40881 8.86011 22 ft 17 kts 76°
2026-05-04 19:00 44.40843 8.86082 23 ft 10 kts 202°
2026-05-04 19:00 44.40843 8.85984 24 ft 17 kts 286°
2026-05-04 19:00 44.40928 8.85547 20 ft 84 kts 285°
2026-05-04 19:01 44.41140 8.84464 21 ft 145 kts 285°
2026-05-04 19:01 44.41445 8.82933 280 ft 168 kts 285°
2026-05-04 19:01 44.41753 8.81378 1013 ft 164 kts 284°
2026-05-04 19:01 44.42056 8.79813 1494 ft 175 kts 284°
2026-05-04 19:02 44.42311 8.78053 1812 ft 191 kts 266°
2026-05-04 19:02 44.41872 8.76340 2291 ft 191 kts 225°
2026-05-04 19:02 44.40767 8.75363 2808 ft 190 kts 191°
2026-05-04 19:02 44.39484 8.75442 3437 ft 185 kts 157°
2026-05-04 19:03 44.38420 8.76411 4072 ft 182 kts 142°
2026-05-04 19:03 44.37366 8.77357 4720 ft 180 kts 150°
2026-05-04 19:03 44.36262 8.78162 5333 ft 180 kts 150°
2026-05-04 19:03 44.35087 8.79000 5588 ft 200 kts 156°
2026-05-04 19:04 44.33640 8.79245 5798 ft 228 kts 189°
2026-05-04 19:04 44.32213 8.78012 6070 ft 262 kts 230°
2026-05-04 19:04 44.31617 8.75543 6682 ft 283 kts 268°
2026-05-04 19:04 44.32107 8.72854 7416 ft 292 kts 294°
2026-05-04 19:05 44.33118 8.70374 8227 ft 295 kts 299°
2026-05-04 19:05 44.34091 8.67847 9057 ft 296 kts 294°
2026-05-04 19:05 44.34947 8.65225 9887 ft 297 kts 291°
2026-05-04 19:05 44.35745 8.62557 10588 ft 301 kts 290°
2026-05-04 19:06 44.36554 8.59750 10837 ft 323 kts 291°
2026-05-04 19:06 44.37826 8.57047 11110 ft 346 kts 314°
2026-05-04 19:06 44.39864 8.55142 11597 ft 360 kts 336°
2026-05-04 19:06 44.42314 8.54308 12238 ft 367 kts 356°
2026-05-04 19:07 44.44856 8.54663 13000 ft 370 kts 15°
2026-05-04 19:07 44.47196 8.56154 13779 ft 371 kts 30°
2026-05-04 19:07 44.49436 8.58007 14321 ft 378 kts 30°
2026-05-04 19:07 44.51719 8.59907 14777 ft 385 kts 30°
2026-05-04 19:08 44.54007 8.61808 15299 ft 390 kts 30°
2026-05-04 19:08 44.56352 8.63753 15853 ft 394 kts 30°
2026-05-04 19:08 44.58717 8.65711 16406 ft 397 kts 30°
2026-05-04 19:08 44.61107 8.67689 16920 ft 401 kts 29°
2026-05-04 19:09 44.63532 8.69688 17451 ft 405 kts 29°
2026-05-04 19:09 44.65972 8.71693 18002 ft 409 kts 29°
2026-05-04 19:09 44.68437 8.73718 18568 ft 411 kts 29°
2026-05-04 19:09 44.70915 8.75756 19077 ft 414 kts 29°
2026-05-04 19:10 44.73409 8.77810 19584 ft 417 kts 29°
2026-05-04 19:10 44.75943 8.79816 20082 ft 419 kts 24°
2026-05-04 19:10 44.78659 8.81311 20586 ft 420 kts 14°
2026-05-04 19:10 44.81516 8.82184 21067 ft 421 kts
2026-05-04 19:11 44.84417 8.82870 21548 ft 424 kts
2026-05-04 19:11 44.87344 8.83557 22028 ft 427 kts
2026-05-04 19:11 44.90284 8.84249 22487 ft 430 kts
2026-05-04 19:11 44.93243 8.84952 22933 ft 433 kts
2026-05-04 19:12 44.96215 8.85659 23368 ft 435 kts
2026-05-04 19:12 45.02229 8.87090 24149 ft 441 kts
2026-05-04 19:12 45.05261 8.87814 24508 ft 443 kts
2026-05-04 19:13 45.08308 8.88542 24851 ft 445 kts
2026-05-04 19:13 45.11369 8.89275 25196 ft 447 kts
2026-05-04 19:13 45.14444 8.90014 25523 ft 449 kts
2026-05-04 19:13 45.17534 8.90755 25855 ft 451 kts
2026-05-04 19:14 45.20637 8.91501 26170 ft 453 kts
2026-05-04 19:14 45.23753 8.92256 26485 ft 455 kts
2026-05-04 19:14 45.26882 8.93013 26809 ft 457 kts
2026-05-04 19:14 45.30023 8.93770 27103 ft 459 kts
2026-05-04 19:15 45.33172 8.94528 27411 ft 461 kts
2026-05-04 19:15 45.36342 8.95288 27708 ft 463 kts
2026-05-04 19:15 45.39522 8.96050 28001 ft 464 kts
2026-05-04 19:15 45.42715 8.96818 28285 ft 466 kts
2026-05-04 19:16 45.45882 8.97583 28555 ft 468 kts
2026-05-04 19:16 45.49097 8.98363 28823 ft 470 kts
2026-05-04 19:16 45.52371 8.99161 29079 ft 472 kts
2026-05-04 19:16 45.55614 8.99954 29341 ft 474 kts
2026-05-04 19:17 45.58869 9.00753 29589 ft 475 kts
2026-05-04 19:17 45.62134 9.01552 29831 ft 477 kts
2026-05-04 19:17 45.65415 9.02334 30042 ft 479 kts
2026-05-04 19:17 45.68672 9.02968 30217 ft 481 kts
2026-05-04 19:18 45.71999 9.03474 30438 ft 480 kts
2026-05-04 19:18 45.75331 9.03896 30709 ft 479 kts
2026-05-04 19:18 45.78649 9.04294 30994 ft 478 kts
2026-05-04 19:18 45.81957 9.04708 31272 ft 477 kts
2026-05-04 19:19 45.85257 9.05157 31545 ft 476 kts
2026-05-04 19:19 45.88550 9.05637 31828 ft 475 kts
2026-05-04 19:19 45.91834 9.06134 32129 ft 474 kts
2026-05-04 19:19 45.95112 9.06639 32394 ft 473 kts
2026-05-04 19:20 45.98386 9.06955 32647 ft 470 kts 356°
2026-05-04 19:20 46.01621 9.06636 32948 ft 465 kts 350°
2026-05-04 19:20 46.04834 9.06102 33247 ft 464 kts 350°
2026-05-04 19:20 46.08041 9.05570 33520 ft 463 kts 349°
2026-05-04 19:21 46.11237 9.05044 33811 ft 462 kts 349°
2026-05-04 19:21 46.14418 9.04530 34117 ft 461 kts 351°
2026-05-04 19:21 46.17630 9.04373 34369 ft 464 kts 359°
2026-05-04 19:21 46.20853 9.04590 34602 ft 464 kts 359°
2026-05-04 19:22 46.24080 9.04818 34828 ft 463 kts 359°
2026-05-04 19:22 46.27301 9.05045 35060 ft 463 kts 359°
2026-05-04 19:22 46.30511 9.05265 35292 ft 463 kts 359°
2026-05-04 19:22 46.33728 9.05481 35495 ft 462 kts 359°
2026-05-04 19:23 46.36941 9.05693 35678 ft 462 kts 359°
2026-05-04 19:23 46.40148 9.05906 35882 ft 462 kts 359°
2026-05-04 19:23 46.43358 9.06123 36044 ft 462 kts 359°
2026-05-04 19:24 46.49771 9.06557 36080 ft 461 kts 359°
2026-05-04 19:24 46.56175 9.06994 36083 ft 461 kts 359°
2026-05-04 19:25 46.62586 9.07431 36076 ft 462 kts 360°
2026-05-04 19:25 46.69013 9.07871 36075 ft 462 kts 359°
2026-05-04 19:26 46.75447 9.08310 36065 ft 463 kts 359°
2026-05-04 19:26 46.80808 9.08678 36049 ft 463 kts 359°
2026-05-04 19:27 46.87252 9.09117 36050 ft 463 kts 360°
2026-05-04 19:27 46.93683 9.09560 36042 ft 463 kts 360°
2026-05-04 19:28 47.00123 9.10010 36031 ft 463 kts 360°
2026-05-04 19:28 47.06562 9.10454 36021 ft 463 kts 360°
2026-05-04 19:29 47.12990 9.10906 36006 ft 462 kts 360°
2026-05-04 19:29 47.19423 9.11367 35998 ft 463 kts 360°
2026-05-04 19:30 47.25848 9.11818 36013 ft 463 kts 360°
2026-05-04 19:30 47.32290 9.12262 36002 ft 463 kts 360°
2026-05-04 19:31 47.38731 9.12710 35994 ft 464 kts 360°
2026-05-04 19:31 47.45192 9.13170 35997 ft 464 kts 360°
2026-05-04 19:32 47.51630 9.13620 35989 ft 464 kts 360°
2026-05-04 19:32 47.58081 9.14075 35989 ft 464 kts 360°
2026-05-04 19:33 47.64540 9.14534 35983 ft 465 kts
2026-05-04 19:33 47.71006 9.14991 35985 ft 465 kts
2026-05-04 19:34 47.77481 9.15453 35983 ft 466 kts
2026-05-04 19:34 47.83951 9.15913 35991 ft 466 kts
2026-05-04 19:35 47.90423 9.16386 35746 ft 465 kts
2026-05-04 19:35 47.93661 9.16623 35489 ft 466 kts
2026-05-04 19:35 47.96894 9.16857 35246 ft 467 kts
2026-05-04 19:35 48.00140 9.17087 35020 ft 467 kts
2026-05-04 19:36 48.03389 9.17314 34972 ft 467 kts
2026-05-04 19:36 48.09851 9.17778 34987 ft 469 kts
2026-05-04 19:37 48.16373 9.18261 34989 ft 470 kts
2026-05-04 19:37 48.22900 9.19084 34989 ft 471 kts
2026-05-04 19:38 48.29405 9.20307 34993 ft 472 kts
2026-05-04 19:38 48.35916 9.21545 34986 ft 471 kts
2026-05-04 19:39 48.42440 9.22663 34977 ft 471 kts
2026-05-04 19:39 48.48960 9.23727 34980 ft 472 kts
2026-05-04 19:40 48.55482 9.24816 34973 ft 472 kts
2026-05-04 19:40 48.62011 9.25934 34972 ft 472 kts
2026-05-04 19:41 48.68547 9.26993 34972 ft 472 kts
2026-05-04 19:41 48.75082 9.27960 34974 ft 472 kts
2026-05-04 19:42 48.81614 9.28919 34972 ft 472 kts
2026-05-04 19:42 48.88155 9.29920 34973 ft 472 kts
2026-05-04 19:43 48.94699 9.30949 34982 ft 472 kts
2026-05-04 19:43 49.01236 9.31962 34977 ft 473 kts
2026-05-04 19:44 49.07782 9.32973 34975 ft 473 kts
2026-05-04 19:44 49.14323 9.33990 34977 ft 473 kts
2026-05-04 19:45 49.20867 9.35002 34981 ft 473 kts
2026-05-04 19:45 49.27409 9.36022 34986 ft 472 kts
2026-05-04 19:46 49.33954 9.37049 34990 ft 473 kts
2026-05-04 19:46 49.40504 9.38076 34980 ft 473 kts
2026-05-04 19:47 49.47057 9.39106 34981 ft 473 kts
2026-05-04 19:47 49.53568 9.40133 34982 ft 473 kts
2026-05-04 19:48 49.60161 9.41173 34984 ft 473 kts
2026-05-04 19:48 49.66676 9.42213 34979 ft 474 kts
2026-05-04 19:49 49.73273 9.43268 34978 ft 474 kts
2026-05-04 19:49 49.79833 9.44302 34979 ft 474 kts
2026-05-04 19:50 49.86352 9.45345 34987 ft 474 kts
2026-05-04 19:50 49.92953 9.46423 34983 ft 474 kts
2026-05-04 19:51 49.99471 9.47433 34982 ft 473 kts 359°
2026-05-04 19:51 50.05917 9.46292 35212 ft 462 kts 340°
2026-05-04 19:51 50.08924 9.44650 35467 ft 455 kts 330°
2026-05-04 19:52 50.11667 9.42295 35724 ft 447 kts 320°
2026-05-04 19:52 50.14101 9.39356 35925 ft 443 kts 316°
2026-05-04 19:52 50.16496 9.36294 35992 ft 446 kts 316°
2026-05-04 19:53 50.21314 9.30147 35992 ft 449 kts 316°
2026-05-04 19:53 50.26166 9.23992 35994 ft 449 kts 316°
2026-05-04 19:54 50.31012 9.17823 35883 ft 451 kts 316°
2026-05-04 19:54 50.33450 9.14707 35367 ft 451 kts 316°
2026-05-04 19:54 50.35875 9.11609 34874 ft 451 kts 316°
2026-05-04 19:54 50.38305 9.08505 34393 ft 451 kts 315°
2026-05-04 19:55 50.40734 9.05397 33890 ft 451 kts 315°
2026-05-04 19:55 50.43164 9.02280 33342 ft 452 kts 315°
2026-05-04 19:55 50.45598 8.99153 32801 ft 453 kts 316°
2026-05-04 19:55 50.48039 8.96013 32271 ft 454 kts 316°
2026-05-04 19:56 50.50481 8.92866 31750 ft 453 kts 316°
2026-05-04 19:56 50.52910 8.89727 31233 ft 450 kts 316°
2026-05-04 19:56 50.55348 8.86654 30754 ft 448 kts 317°
2026-05-04 19:56 50.57808 8.83678 30251 ft 445 kts 318°
2026-05-04 19:57 50.60275 8.80768 29786 ft 442 kts 319°
2026-05-04 19:57 50.62735 8.77887 29361 ft 439 kts 319°
2026-05-04 19:57 50.65175 8.75011 29071 ft 437 kts 319°
2026-05-04 19:57 50.67596 8.72125 28962 ft 435 kts 318°
2026-05-04 19:58 50.70003 8.69231 28998 ft 436 kts 318°
2026-05-04 19:58 50.74790 8.63433 28996 ft 436 kts 318°
2026-05-04 19:59 50.79631 8.57538 28995 ft 436 kts 318°
2026-05-04 19:59 50.84409 8.51736 29000 ft 436 kts 318°
2026-05-04 20:00 50.89259 8.45832 28329 ft 438 kts 318°
2026-05-04 20:00 50.91644 8.42917 27540 ft 439 kts 318°
2026-05-04 20:00 50.94064 8.39959 26757 ft 440 kts 318°
2026-05-04 20:00 50.96486 8.36991 26004 ft 440 kts 318°
2026-05-04 20:01 50.98884 8.34043 25605 ft 432 kts 318°
2026-05-04 20:01 51.01282 8.31147 25255 ft 424 kts 322°
2026-05-04 20:01 51.03765 8.28775 25045 ft 420 kts 327°
2026-05-04 20:01 51.06305 8.26528 24983 ft 415 kts 327°
2026-05-04 20:02 51.08856 8.24256 24999 ft 414 kts 327°
2026-05-04 20:02 51.11365 8.22017 24998 ft 414 kts 327°
2026-05-04 20:02 51.13843 8.19805 25000 ft 414 kts 327°
2026-05-04 20:02 51.16344 8.17571 25001 ft 407 kts 327°
2026-05-04 20:03 51.18764 8.15415 24995 ft 391 kts 327°
2026-05-04 20:03 51.21127 8.13309 24477 ft 390 kts 327°
2026-05-04 20:03 51.23507 8.11178 23791 ft 395 kts 327°
2026-05-04 20:03 51.25917 8.09015 23110 ft 398 kts 327°
2026-05-04 20:04 51.28329 8.06849 22557 ft 397 kts 327°
2026-05-04 20:04 51.30728 8.04692 22071 ft 394 kts 327°
2026-05-04 20:04 51.33109 8.02544 21568 ft 392 kts 327°
2026-05-04 20:04 51.35476 8.00410 21103 ft 389 kts 327°
2026-05-04 20:05 51.37829 7.98289 20634 ft 387 kts 327°
2026-05-04 20:05 51.40165 7.96187 20316 ft 380 kts 327°
2026-05-04 20:05 51.42426 7.94127 20186 ft 367 kts 324°
2026-05-04 20:05 51.44331 7.91585 20058 ft 349 kts 308°
2026-05-04 20:06 51.45678 7.88469 19850 ft 334 kts 292°
2026-05-04 20:06 51.46458 7.85024 19515 ft 325 kts 278°
2026-05-04 20:06 51.46683 7.81469 19060 ft 318 kts 264°
2026-05-04 20:06 51.46363 7.78008 18559 ft 311 kts 252°
2026-05-04 20:07 51.45769 7.74683 17846 ft 309 kts 251°
2026-05-04 20:07 51.45176 7.71383 17144 ft 307 kts 251°
2026-05-04 20:07 51.44590 7.68116 16488 ft 304 kts 251°
2026-05-04 20:07 51.44002 7.64857 15778 ft 304 kts 251°
2026-05-04 20:08 51.43414 7.61612 15140 ft 302 kts 251°
2026-05-04 20:08 51.42830 7.58392 14529 ft 300 kts 251°
2026-05-04 20:08 51.42233 7.55205 13934 ft 297 kts 248°
2026-05-04 20:08 51.41361 7.52218 13484 ft 295 kts 237°
2026-05-04 20:09 51.40241 7.49490 13156 ft 292 kts 234°
2026-05-04 20:09 51.39132 7.46825 12872 ft 291 kts 234°
2026-05-04 20:09 51.38014 7.44131 12622 ft 290 kts 234°
2026-05-04 20:09 51.37265 7.42323 12447 ft 289 kts 234°
2026-05-04 20:10 51.36156 7.39653 12189 ft 287 kts 234°
2026-05-04 20:10 51.34696 7.36141 11852 ft 285 kts 234°
2026-05-04 20:10 51.33598 7.33509 11595 ft 282 kts 234°
2026-05-04 20:10 51.32517 7.30919 11344 ft 278 kts 234°
2026-05-04 20:11 51.31791 7.29180 11178 ft 277 kts 234°
2026-05-04 20:11 51.30725 7.26626 10920 ft 275 kts 234°
2026-05-04 20:11 51.29664 7.24089 10675 ft 272 kts 234°
2026-05-04 20:11 51.28622 7.21597 10429 ft 267 kts 234°
2026-05-04 20:12 51.27618 7.19202 10289 ft 258 kts 233°
2026-05-04 20:12 51.26644 7.16856 10159 ft 249 kts 237°
2026-05-04 20:12 51.26142 7.14219 9971 ft 248 kts 267°
2026-05-04 20:12 51.26565 7.11590 9641 ft 254 kts 299°
2026-05-04 20:13 51.27811 7.09582 9265 ft 259 kts 321°
2026-05-04 20:13 51.29300 7.07944 8879 ft 261 kts 333°
2026-05-04 20:13 51.31060 7.07319 8532 ft 262 kts
2026-05-04 20:13 51.32786 7.08110 8154 ft 260 kts 33°
2026-05-04 20:14 51.34074 7.10080 7799 ft 257 kts 56°
2026-05-04 20:14 51.35144 7.12367 7421 ft 257 kts 55°
2026-05-04 20:14 51.36213 7.14651 7080 ft 255 kts 54°
2026-05-04 20:14 51.37274 7.16915 6777 ft 253 kts 54°
2026-05-04 20:15 51.38328 7.19159 6447 ft 252 kts 54°
2026-05-04 20:15 51.39476 7.21285 6003 ft 254 kts 37°
2026-05-04 20:15 51.41069 7.22366 5744 ft 250 kts
2026-05-04 20:15 51.42762 7.22002 5620 ft 246 kts 334°
2026-05-04 20:16 51.44209 7.20621 5504 ft 241 kts 315°
2026-05-04 20:16 51.45272 7.18567 5371 ft 239 kts 296°
2026-05-04 20:16 51.45844 7.16108 5255 ft 235 kts 276°
2026-05-04 20:16 51.45900 7.13520 5120 ft 231 kts 261°
2026-05-04 20:17 51.45445 7.11094 4988 ft 227 kts 239°
2026-05-04 20:17 51.44538 7.09030 4816 ft 226 kts 231°
2026-05-04 20:17 51.43590 7.07022 4592 ft 226 kts 231°
2026-05-04 20:17 51.42646 7.05020 4273 ft 225 kts 232°
2026-05-04 20:18 51.41701 7.03012 3777 ft 230 kts 232°
2026-05-04 20:18 51.40737 7.00968 3488 ft 226 kts 232°
2026-05-04 20:18 51.39816 6.99015 3380 ft 215 kts 232°
2026-05-04 20:18 51.38919 6.97115 3146 ft 212 kts 232°
2026-05-04 20:19 51.38034 6.95242 2870 ft 210 kts 232°
2026-05-04 20:19 51.37161 6.93396 2593 ft 205 kts 231°
2026-05-04 20:19 51.36316 6.91609 2326 ft 198 kts 232°
2026-05-04 20:19 51.35511 6.89908 2099 ft 186 kts 232°
2026-05-04 20:20 51.34741 6.88283 1807 ft 180 kts 232°
2026-05-04 20:20 51.34009 6.86739 1553 ft 168 kts 231°
2026-05-04 20:20 51.33341 6.85328 1357 ft 152 kts 230°
2026-05-04 20:20 51.32724 6.84029 1148 ft 142 kts 231°
2026-05-04 20:21 51.32125 6.82771 935 ft 142 kts 231°
2026-05-04 20:21 51.31531 6.81515 763 ft 142 kts 231°
2026-05-04 20:21 51.30359 6.79048 407 ft 140 kts 232°
2026-05-04 20:22 51.29772 6.77811 213 ft 138 kts 230°
2026-05-04 20:22 51.29221 6.76659 133 ft 108 kts 232°
2026-05-04 20:22 51.28936 6.76061 133 ft 43 kts 233°
2026-05-04 20:22 51.28792 6.75788 130 ft 23 kts 218°
2026-05-04 20:23 51.28657 6.75683 121 ft 19 kts 188°
2026-05-04 20:23 51.28527 6.75709 125 ft 18 kts 155°
2026-05-04 20:23 51.28427 6.75818 126 ft 18 kts 142°
2026-05-04 20:23 51.28331 6.75935 129 ft 17 kts 142°
2026-05-04 20:24 51.28243 6.75986 128 ft 14 kts 204°
2026-05-04 20:24 51.28180 6.75939 128 ft 8 kts 204°
2026-05-04 20:24 51.28136 6.75907 129 ft 6 kts 205°
2026-05-04 20:24 51.28103 6.75882 129 ft 4 kts 205°
2026-05-04 20:25 51.28070 6.75857 128 ft 7 kts 205°
2026-05-04 20:25 51.28014 6.75825 129 ft 10 kts 187°
2026-05-04 20:25 51.27927 6.75819 129 ft 14 kts 182°
2026-05-04 20:25 51.27851 6.75846 130 ft 11 kts 121°
2026-05-04 20:26 51.27844 6.75955 130 ft 9 kts 91°
2026-05-04 20:26 51.27842 6.76055 127 ft 9 kts 92°
2026-05-04 20:26 51.27846 6.76151 128 ft 9 kts 70°
2026-05-04 20:26 51.27889 6.76226 130 ft 8 kts 45°
2026-05-04 20:27 51.27907 6.76255 129 ft 1 kts 45°
2026-05-04 20:27 51.27909 6.76258 129 ft 0 kts 45°